This is the latest recevied weather packets stored in our database for station/object MM1PTT-13. If no packets are shown the sender has not sent any weather packets the latest 1 day(s).
| Time | Temp. | Humidity | Pressure | Rain* | Wind** | Luminosity | Snow |
|---|---|---|---|---|---|---|---|
| 1778059843 | 10.56° C | 52% | 987.5 hPa | 0 mm | - | 613 W/m² | - |
| 1778059243 | 9.44° C | 50% | 987.5 hPa | 0 mm | - | 463 W/m² | - |
| 1778058643 | 9.44° C | 51% | 987.5 hPa | 0 mm | - | 380 W/m² | - |
| 1778058344 | 8.89° C | 57% | 987.8 hPa | 0 mm | - | 441 W/m² | - |
| 1778057743 | 9.44° C | 53% | 987.8 hPa | 0 mm | - | 351 W/m² | - |
| 1778057142 | 8.33° C | 58% | 987.8 hPa | 0 mm | - | 347 W/m² | - |
| 1778056843 | 8.33° C | 55% | 987.8 hPa | 0 mm | - | 350 W/m² | - |
| 1778056542 | 8.89° C | 55% | 988.1 hPa | 0 mm | - | 353 W/m² | - |
| 1778056242 | 8.89° C | 56% | 988.1 hPa | 0 mm | - | 341 W/m² | - |
| 1778055943 | 8.89° C | 57% | 988.1 hPa | 0 mm | - | 340 W/m² | - |
| 1778055343 | 8.89° C | 55% | 987.8 hPa | 0 mm | - | 299 W/m² | - |
| 1778055043 | 8.33° C | 62% | 987.8 hPa | 0 mm | - | 294 W/m² | - |
| 1778054743 | 7.78° C | 61% | 987.8 hPa | 0 mm | - | 301 W/m² | - |
| 1778054443 | 8.33° C | 61% | 987.8 hPa | 0 mm | - | 302 W/m² | - |
| 1778054143 | 8.33° C | 60% | 987.8 hPa | 0 mm | - | 296 W/m² | - |
| 1778053843 | 8.89° C | 63% | 987.8 hPa | 0 mm | - | 294 W/m² | - |
| 1778053543 | 7.78° C | 65% | 987.8 hPa | 0 mm | - | 239 W/m² | - |
| 1778052943 | 6.67° C | 68% | 988.1 hPa | 0 mm | - | 200 W/m² | - |
| 1778052643 | 6.67° C | 69% | 987.8 hPa | 0 mm | - | 190 W/m² | - |
| 1778051742 | 6.67° C | 70% | 988.1 hPa | 0 mm | - | 172 W/m² | - |
| 1778051443 | 6.11° C | 72% | 988.1 hPa | 0 mm | - | 146 W/m² | - |
| 1778051143 | 6.11° C | 70% | 988.1 hPa | 0 mm | - | 150 W/m² | - |
| 1778050843 | 6.11° C | 71% | 988.1 hPa | 0 mm | - | 151 W/m² | - |
| 1778050543 | 6.11° C | 73% | 988.1 hPa | 0 mm | - | 131 W/m² | - |
| 1778049944 | 5.56° C | 74% | 988.1 hPa | 0 mm | - | 118 W/m² | - |
* Rain latest hour (hover to see other rain measurements)
** Current wind speed in m/s (hover to see current wind gust speed)